Location: *
(50.0228°S, 177.2688°W)
Time: 07:28:06
(UTC+00:00)

Cosmos 332 Rocket - Pass Details

Date: 07 April 2020
Orbit: 682 x 704 km, 74.0° (Epoch: 02 June)

Event Time Altitude Azimuth Distance (km) Brightness Sun altitude
Rises 07:04:02 0° 352° (N) 3,079 7.1 -17.1°
Reaches altitude 10° 07:06:23 10° 357° (N) 2,166 6.3 -17.4°
Maximum altitude 07:11:08 53° 73° (ENE) 861 3.9 -18.2°
Drops below altitude 10° 07:15:55 10° 148° (SSE) 2,180 6.2 -18.9°
Sets 07:18:17 0° 152° (SSE) 3,100 7.0 -19.3°
